Погода в Херсонисосе

Греция     35°18′32″N   25°21′51″E
темп.,
°C
ветер,
м/с
пор.,
м/с
влажн.,
%
обл.,
%
осадки,
мм/ч
давл.,
гПа
погр.,
м
11 мая, вт
вт1100:00+12с34710 0.0 1016141
03:00+12ссв24765 0.0 101593
06:00+12ссз47710 0.0 1015214
09:00+16ссз57540 0.0 1015646
12:00+19ссз56440 0.0 1015671
15:00+19ссз67460 0.0 1014641
18:00+17ссз46510 0.0 1014581
21:00+14с23660 0.0 101397
12 мая, ср
ср1200:00+13с23650 0.0 101396
03:00+12вюв12565 0.0 101226
06:00+13в12390 0.0 101131
09:00+19ссз13310 0.0 1012285
12:00+22ссз332977 0.0 1012542
15:00+24с2230100 0.0 1011769
18:00+22ссз113980 0.0 1010429
21:00+17ю11540 0.0 101115
13 мая, чт
чт1300:00+17ююв22460 0.0 101020
03:00+16ю22480 0.0 100925
06:00+15ю22430 0.0 101024
09:00+21ююз01404 0.0 1010333
12:00+23ссз32380 0.0 1011864
15:00+23с43474 0.0 1011818
18:00+21с225136 0.0 1011516
21:00+16с11720 0.0 101229
14 мая, пт
пт1400:00+15ююв12740 0.0 101322
03:00+15ююв116824 0.0 101220
06:00+15св1170100 0.0 101320
09:00+21всв12410 0.0 1014397
12:00+25ссз32320 0.0 1015988
15:00+23с33420 0.0 1016825
18:00+21ссз22440 0.0 1016452
21:00+17в11520 0.0 101614
15 мая, сб
сб1500:00+17ю22540 0.0 101621
03:00+16ю23595 0.0 101526
06:00+16ююв12575 0.0 101418
09:00+23св02335 0.0 1014321
12:00+27сз232886 0.0 10141079
15:00+26сз33379 0.0 10131114
18:00+23с2244100 0.0 1012433
21:00+19ююв225299 0.0 101114